DW3979 Weather Reports


Display with metric or nautical units.
time (UTC)temp
F
wind
direction
speed
MPH
gust
MPH
rain 1hr
in
rain 24hr
in
rain mn
in
humidity
%
barometer
mb
20260502223516 83 103 1.0 3.0 0.00 0.00 0.00 12 1016.5
20260502223017 83 182 1.0 3.0 0.00 0.00 0.00 13 1016.6
20260502222015 82 57 1.0 5.0 0.00 0.00 0.00 12 1016.7
20260502221012 82 111 0.0 3.0 0.00 0.00 0.00 13 1016.8
20260502220513 80 80 1.0 5.0 0.00 0.00 0.00 13 1016.9
20260502220007 81 11 2.0 6.0 0.00 0.00 0.00 13 1017.1
20260502215507 80 321 2.0 6.0 0.00 0.00 0.00 13 1017.1
20260502215007 80 347 1.0 5.0 0.00 0.00 0.00 13 1017.2
20260502214506 81 355 1.0 5.0 0.00 0.00 0.00 13 1017.2
20260502214006 80 355 2.0 4.0 0.00 0.00 0.00 12 1017.5
20260502213507 81 5 1.0 4.0 0.00 0.00 0.00 12 1017.5
20260502213007 81 194 1.0 4.0 0.00 0.00 0.00 12 1017.5
20260502212507 82 86 2.0 9.0 0.00 0.00 0.00 13 1017.7
20260502212007 82 59 2.0 9.0 0.00 0.00 0.00 12 1017.9
20260502211506 82 100 1.0 5.0 0.00 0.00 0.00 12 1017.9
20260502211006 82 292 2.0 5.0 0.00 0.00 0.00 12 1017.9
20260502210006 82 5 1.0 2.0 0.00 0.00 0.00 12 1018.1
20260502205506 82 112 1.0 4.0 0.00 0.00 0.00 12 1018.2
20260502205006 81 333 1.0 4.0 0.00 0.00 0.00 12 1018.4
20260502204507 81 244 1.0 4.0 0.00 0.00 0.00 11 1018.4
20260502204007 81 59 1.0 3.0 0.00 0.00 0.00 12 1018.4
20260502203507 81 78 1.0 3.0 0.00 0.00 0.00 12 1018.5
20260502203007 81 123 2.0 5.0 0.00 0.00 0.00 12 1018.4
20260502202507 80 128 1.0 5.0 0.00 0.00 0.00 12 1018.5
20260502201507 79 342 1.0 5.0 0.00 0.00 0.00 12 1018.8
20260502201007 79 129 1.0 4.0 0.00 0.00 0.00 13 1018.8
20260502200507 79 343 1.0 4.0 0.00 0.00 0.00 13 1018.9
20260502200007 79 68 1.0 3.0 0.00 0.00 0.00 14 1018.8
20260502195507 80 346 1.0 4.0 0.00 0.00 0.00 14 1019.0
20260502195007 79 96 1.0 4.0 0.00 0.00 0.00 14 1019.0
20260502194506 79 88 2.0 3.0 0.00 0.00 0.00 14 1019.1
20260502194007 78 151 1.0 3.0 0.00 0.00 0.00 15 1019.1
20260502193507 78 178 1.0 3.0 0.00 0.00 0.00 15 1019.2
20260502193006 78 126 1.0 3.0 0.00 0.00 0.00 15 1019.3
20260502192506 78 315 1.0 3.0 0.00 0.00 0.00 15 1019.3
20260502192006 79 141 1.0 4.0 0.00 0.00 0.00 15 1019.6
20260502191507 79 123 1.0 4.0 0.00 0.00 0.00 15 1019.6
20260502191007 78 350 2.0 4.0 0.00 0.00 0.00 15 1019.6
20260502190507 78 348 2.0 4.0 0.00 0.00 0.00 14 1019.7
20260502190007 79 59 2.0 5.0 0.00 0.00 0.00 14 1019.8
20260502185506 79 23 1.0 5.0 0.00 0.00 0.00 15 1019.9
20260502185006 78 69 1.0 6.0 0.00 0.00 0.00 14 1019.9
20260502184007 77 82 2.0 5.0 0.00 0.00 0.00 16 1020.1
20260502183507 77 88 1.0 5.0 0.00 0.00 0.00 19 1020.1
20260502183007 77 39 1.0 3.0 0.00 0.00 0.00 18 1020.1
20260502182506 77 50 1.0 3.0 0.00 0.00 0.00 17 1020.2
20260502182007 77 107 1.0 3.0 0.00 0.00 0.00 19 1020.4
20260502181506 77 289 1.0 4.0 0.00 0.00 0.00 19 1020.4
20260502170506 73 98 1.0 4.0 0.00 0.00 0.00 21 1020.8
20260502164006 71 42 1.0 4.0 0.00 0.00 0.00 22 1020.9
20260502163506 71 331 1.0 4.0 0.00 0.00 0.00 23 1020.8
20260502162507 71 355 1.0 3.0 0.00 0.00 0.00 22 1020.9
20260502162006 71 349 1.0 3.0 0.00 0.00 0.00 22 1020.8
20260502161007 71 5 0.0 5.0 0.00 0.00 0.00 22 1020.8
20260502160506 71 336 0.0 3.0 0.00 0.00 0.00 22 1020.8
20260502151500 68 355 1.0 3.0 0.00 0.00 0.00 23 1020.6
20260502150958 68 336 0.0 3.0 0.00 0.00 0.00 23 1020.6
20260502150459 68 350 0.0 3.0 0.00 0.00 0.00 24 1020.6
20260502130432 55 260 1.0 3.0 0.00 0.00 0.00 30 1019.3
20260502123424 55 254 1.0 3.0 0.00 0.00 0.00 29 1019.1
20260502122924 55 255 1.0 3.0 0.00 0.00 0.00 29 1019.0
20260502122422 55 260 1.0 3.0 0.00 0.00 0.00 29 1019.0
20260502121922 55 259 1.0 2.0 0.00 0.00 0.00 29 1018.9
20260502121422 56 257 1.0 2.0 0.00 0.00 0.00 29 1018.9
20260502120923 56 260 1.0 3.0 0.00 0.00 0.00 29 1018.9
20260502120422 55 250 1.0 4.0 0.00 0.00 0.00 30 1018.9
20260502115919 55 274 1.0 3.0 0.00 0.00 0.00 30 1018.9
20260502115418 56 262 1.0 2.0 0.00 0.00 0.00 30 1018.9
20260502114918 56 260 1.0 3.0 0.00 0.00 0.00 30 1018.9
20260502114418 56 254 1.0 3.0 0.00 0.00 0.00 30 1019.0
20260502113421 56 257 1.0 3.0 0.00 0.00 0.00 31 1018.9
20260502112916 56 258 2.0 3.0 0.00 0.00 0.00 31 1018.9
20260502112417 56 274 2.0 4.0 0.00 0.00 0.00 31 1018.9
20260502111914 56 260 2.0 4.0 0.00 0.00 0.00 31 1018.9
20260502110913 56 247 1.0 3.0 0.00 0.00 0.00 31 1018.8
20260502110410 56 260 1.0 3.0 0.00 0.00 0.00 31 1018.9
20260502105910 56 261 1.0 3.0 0.00 0.00 0.00 31 1018.9
20260502105411 56 259 1.0 2.0 0.00 0.00 0.00 31 1018.9
20260502104910 57 285 1.0 4.0 0.00 0.00 0.00 31 1018.8
20260502104412 57 256 1.0 4.0 0.00 0.00 0.00 31 1018.6
20260502103908 57 312 1.0 3.0 0.00 0.00 0.00 30 1018.8
20260502102408 57 259 1.0 3.0 0.00 0.00 0.00 30 1018.5
20260502101908 57 263 1.0 3.0 0.00 0.00 0.00 30 1018.6
20260502101407 58 257 1.0 3.0 0.00 0.00 0.00 30 1018.5
20260502100906 58 261 1.0 3.0 0.00 0.00 0.00 30 1018.4
20260502100404 58 265 1.0 2.0 0.00 0.00 0.00 30 1018.4
20260502091352 59 258 1.0 2.0 0.00 0.00 0.00 28 1018.6
20260502090850 59 250 1.0 3.0 0.00 0.00 0.00 28 1018.6
20260502090348 59 250 0.0 3.0 0.00 0.00 0.00 28 1018.8
20260502071332 60 243 1.0 3.0 0.00 0.00 0.00 25 1018.9
20260502070835 60 254 1.0 3.0 0.00 0.00 0.00 26 1018.9
20260502070331 60 263 1.0 3.0 0.00 0.00 0.00 26 1018.8
20260502065828 60 234 1.0 3.0 0.00 0.00 0.00 26 1018.8
20260502065327 60 252 1.0 3.0 0.00 0.00 0.00 26 1018.6
20260502064827 60 244 1.0 3.0 0.00 0.00 0.00 26 1018.8
20260502064325 60 252 1.0 3.0 0.00 0.00 0.00 25 1018.8
20260502063823 60 260 1.0 3.0 0.00 0.00 0.00 25 1018.6
20260502063322 61 253 1.0 3.0 0.00 0.00 0.00 25 1018.8
20260502062817 61 261 0.0 2.0 0.00 0.00 0.00 25 1018.8
20260502062317 61 259 1.0 2.0 0.00 0.00 0.00 25 1018.6
20260502061811 61 255 1.0 2.0 0.00 0.00 0.00 24 1018.6
20260502060809 62 259 0.0 3.0 0.00 0.00 0.00 24 1018.5
20260502060308 62 257 1.0 3.0 0.00 0.00 0.00 24 1018.4
20260502055807 63 258 0.0 2.0 0.00 0.00 0.00 24 1018.5
20260502055306 63 261 0.0 1.0 0.00 0.00 0.00 23 1018.4
20260502054806 64 283 0.0 0.0 0.00 0.00 0.00 23 1018.4
20260502054305 64 284 0.0 2.0 0.00 0.00 0.00 23 1018.4
20260502053803 64 284 0.0 3.0 0.00 0.00 0.00 23 1018.4
20260502053301 64 241 0.0 3.0 0.00 0.00 0.00 23 1018.4
20260502052801 64 323 0.0 3.0 0.00 0.00 0.00 23 1018.4
20260502052259 64 300 0.0 3.0 0.00 0.00 0.00 23 1018.4
20260502051758 65 309 0.0 3.0 0.00 0.00 0.00 23 1018.4
20260502051255 65 333 0.0 0.0 0.00 0.00 0.00 23 1018.4
20260502050755 65 336 0.0 2.0 0.00 0.00 0.00 23 1018.5
20260502050258 65 336 1.0 6.0 0.00 0.00 0.00 23 1018.4
20260502044755 65 346 0.0 3.0 0.00 0.00 0.00 23 1018.2
20260502044253 65 338 0.0 2.0 0.00 0.00 0.00 23 1018.2
20260502043752 65 329 0.0 2.0 0.00 0.00 0.00 22 1018.1
20260502043253 65 323 0.0 0.0 0.00 0.00 0.00 22 1018.1
20260502042753 66 323 0.0 0.0 0.00 0.00 0.00 22 1018.0
20260502041753 66 323 1.0 3.0 0.00 0.00 0.00 22 1017.7
20260502041254 66 331 0.0 2.0 0.00 0.00 0.00 22 1017.6
20260502040753 67 335 1.0 3.0 0.00 0.00 0.00 21 1017.5
20260502040253 67 350 1.0 4.0 0.00 0.00 0.00 21 1017.3
20260502035753 67 327 1.0 7.0 0.00 0.00 0.00 21 1017.2
20260502034753 67 326 0.0 3.0 0.00 0.00 0.00 20 1016.9
20260502034252 68 33 1.0 4.0 0.00 0.00 0.00 20 1016.9
20260502033751 68 45 1.0 4.0 0.00 0.00 0.00 19 1016.7
20260502032748 68 344 2.0 9.0 0.00 0.00 0.00 19 1016.4
20260502031741 68 327 0.0 3.0 0.00 0.00 0.00 18 1016.0
20260502030739 69 319 1.0 5.0 0.00 0.00 0.00 18 1015.7
20260502030239 69 330 0.0 5.0 0.00 0.00 0.00 17 1015.5
20260502025739 69 286 1.0 3.0 0.00 0.00 0.00 17 1015.2
20260502025237 70 315 1.0 3.0 0.00 0.00 0.00 17 1015.1
20260502024735 70 296 2.0 6.0 0.00 0.00 0.00 16 1015.1
20260502024235 70 334 2.0 6.0 0.00 0.00 0.00 16 1015.0
20260502023733 70 305 2.0 6.0 0.00 0.00 0.00 16 1014.9
20260502023232 71 331 3.0 9.0 0.00 0.00 0.00 16 1014.8
20260502022731 71 327 2.0 9.0 0.00 0.00 0.00 16 1014.7
20260502022229 71 314 2.0 7.0 0.00 0.00 0.00 16 1014.6
20260502021732 71 299 3.0 7.0 0.00 0.00 0.00 15 1014.4
20260502020728 71 292 0.0 4.0 0.00 0.00 0.00 15 1014.2
20260502020229 72 327 0.0 2.0 0.00 0.00 0.00 15 1014.0
20260502015227 73 319 0.0 0.0 0.00 0.00 0.00 14 1013.8
20260502014228 73 319 0.0 0.0 0.00 0.00 0.00 14 1013.8
20260502013226 74 322 0.0 2.0 0.00 0.00 0.00 13 1013.7
20260502012723 74 322 1.0 2.0 0.00 0.00 0.00 14 1013.7
20260502012226 74 322 1.0 4.0 0.00 0.00 0.00 14 1013.5
20260502011216 74 331 1.0 4.0 0.00 0.00 0.00 13 1013.7
20260502010715 74 338 1.0 3.0 0.00 0.00 0.00 13 1013.5
20260502010213 74 335 1.0 4.0 0.00 0.00 0.00 13 1013.5
20260502005713 74 334 2.0 7.0 0.00 0.00 0.00 13 1013.5
20260502005212 75 17 2.0 7.0 0.00 0.00 0.00 13 1013.5
20260502004213 76 348 0.0 4.0 0.00 0.00 0.00 12 1013.4
20260502003713 76 285 0.0 0.0 0.00 0.00 0.00 12 1013.4
20260502003211 76 263 0.0 1.0 0.00 0.00 0.00 12 1013.4
20260502002711 76 283 0.0 3.0 0.00 0.00 0.00 12 1013.5
20260502000709 77 245 3.0 6.0 0.00 0.00 0.00 12 1013.4
20260502000207 77 299 3.0 6.0 0.00 0.00 0.00 12 1013.4
20260501235704 77 290 3.0 6.0 0.00 0.00 0.00 12 1013.4
20260501235204 77 342 2.0 6.0 0.00 0.00 0.00 12 1013.4
20260501234208 78 318 1.0 3.0 0.00 0.00 0.00 12 1013.4
20260501233702 78 298 1.0 4.0 0.00 0.00 0.00 12 1013.4
20260501233201 77 315 1.0 4.0 0.00 0.00 0.00 11 1013.4
20260501232659 78 234 2.0 7.0 0.00 0.00 0.00 11 1013.4
20260501231659 78 270 2.0 6.0 0.00 0.00 0.00 11 1013.4
20260501231157 78 246 3.0 6.0 0.00 0.00 0.00 11 1013.4
20260501230656 78 275 3.0 9.0 0.00 0.00 0.00 10 1013.4
20260501230157 79 279 2.0 9.0 0.00 0.00 0.00 11 1013.4
20260501225655 79 191 2.0 4.0 0.00 0.00 0.00 10 1013.4
20260501225155 79 246 1.0 4.0 0.00 0.00 0.00 11 1013.4
20260501224657 78 304 1.0 5.0 0.00 0.00 0.00 12 1013.4
20260501223655 77 251 1.0 9.0 0.00 0.00 0.00 11 1013.5